Change the Weather History Date:

Wednesday, December 4, 2013

  Actual Average Record
Temperature  
Mean Temperature 79 °F -  
Max Temperature 89 °F - - ()
Min Temperature 69 °F - - ()
Cooling Degree Days 14    
Growing Degree Days 29 (Base 50)    
Moisture  
Dew Point 68 °F    
Average Humidity 69    
Maximum Humidity 94    
Minimum Humidity 37    
Precipitation  
Precipitation 0.00 in - - ()
Sea Level Pressure  
Sea Level Pressure 29.91 in    
Wind  
Wind Speed 0 mph ()    
Max Wind Speed 12 mph    
Max Gust Speed -    
Visibility 9.5 miles    
Events      
T = Trace of Precipitation, MM = Missing Value Source: Averaged Metar Reports

Daily Weather History Graph

Daily Weather History Graph

Search for Another Location

Airport or City:

Trip Planner

Search our weather history database for the weather conditions in past years. The results will help you decide how hot, cold, wet, or windy it might be!

Date:

Astronomy

Dec. 04, 2013 Rise Set
Actual Time 6:04 AM EAT 6:34 PM EAT
Civil Twilight 5:42 AM EAT 6:57 PM EAT
Nautical Twilight 5:15 AM EAT 7:23 PM EAT
Astronomical Twilight 4:48 AM EAT 7:50 PM EAT
Moon 7:20 AM EAT (12/4) 8:10 PM EAT (12/4)
Length of Visible Light 13h 15m
Length of Day
12h 29m
Waxing Crescent, 3% of the Moon is Illuminated
Dec 4
Waxing Crescent
Dec 9
First Quarter
Dec 17
Full
Dec 25
Last Quarter
Jan 1
New

Hourly Weather History & Observations

Time (EAT) Temp. Heat Index Dew Point Humidity Pressure Visibility Wind Dir Wind Speed Gust Speed Precip Events Conditions
12:00 AM 72 °F - 69 °F 86%  in 19 mi Calm Calm - -   Scattered Clouds
12:00 AM 71.6 °F - 68.0 °F 88% 29.95 in 6.2 mi Calm Calm - N/A   Partly Cloudy
1:00 AM 71.6 °F - 68.0 °F 88% 29.95 in 6.2 mi Calm Calm - N/A   Partly Cloudy
2:00 AM 71.6 °F - 68.0 °F 88% 29.95 in 6.2 mi Calm Calm - N/A   Partly Cloudy
3:00 AM 71 °F - 69 °F 89%  in 19 mi Calm Calm - -   Scattered Clouds
3:00 AM 71.6 °F - 68.0 °F 88% 29.95 in 6.2 mi Calm Calm - N/A   Partly Cloudy
4:00 AM 69.8 °F - 68.0 °F 94% 29.95 in 6.2 mi Calm Calm - N/A   Partly Cloudy
5:00 AM 69.8 °F - 68.0 °F 94% 29.98 in 6.2 mi Calm Calm - N/A   Mostly Cloudy
6:00 AM 69 °F - 68 °F 94%  in 19 mi Calm Calm - -   Mostly Cloudy
6:00 AM 69.8 °F - 68.0 °F 94% 29.95 in 6.2 mi Calm Calm - N/A   Mostly Cloudy
7:00 AM 69.8 °F - 68.0 °F 94% 29.98 in 6.2 mi Calm Calm - N/A   Mostly Cloudy
8:00 AM 73.4 °F - 69.8 °F 88% 29.98 in 6.2 mi Calm Calm - N/A   Mostly Cloudy
11:00 AM 78.8 °F - 69.8 °F 74% 29.98 in 6.2 mi Calm Calm - N/A   Mostly Cloudy
12:00 PM 82 °F - 69 °F 57%  in 19 mi Calm Calm - -   Partly Cloudy
1:00 PM 86.0 °F 90.4 °F 69.8 °F 58% 29.92 in 6.2 mi Calm Calm - N/A   Scattered Clouds
2:00 PM 87.8 °F 91.4 °F 68.0 °F 52% 29.89 in 6.2 mi ENE 5.8 mph - N/A   Scattered Clouds
3:00 PM 88 °F - 69 °F 43%  in 19 mi Calm Calm - -   Partly Cloudy
3:00 PM 87.8 °F 91.4 °F 68.0 °F 52% 29.86 in 6.2 mi Calm Calm - N/A   Scattered Clouds
4:00 PM 89.6 °F 93.4 °F 68.0 °F 49% 29.83 in 6.2 mi Calm Calm - N/A   Scattered Clouds
5:00 PM 89.6 °F 93.4 °F 68.0 °F 49% 29.83 in 6.2 mi Calm Calm - N/A   Scattered Clouds
6:00 PM 88 °F - 67 °F 41%  in 19 mi Calm Calm - -   Scattered Clouds
6:00 PM 87.8 °F 91.4 °F 68.0 °F 52% 29.83 in 6.2 mi Calm Calm - N/A   Partly Cloudy
7:00 PM 86.0 °F 88.2 °F 66.2 °F 51% 29.83 in 6.2 mi Calm Calm - N/A   Partly Cloudy
8:00 PM 84.2 °F 85.6 °F 64.4 °F 51% 29.86 in 6.2 mi Calm Calm - N/A   Partly Cloudy
9:00 PM 84 °F - 62 °F 37%  in 19 mi Calm Calm - -   Scattered Clouds
9:00 PM 84.2 °F 85.0 °F 62.6 °F 48% 29.86 in 6.2 mi Calm Calm - N/A   Partly Cloudy
10:00 PM 78.8 °F - 66.2 °F 65% 29.92 in 6.2 mi NNE 11.5 mph - N/A   Clear
11:00 PM 77.0 °F - 66.2 °F 69% 29.89 in - North - - N/A   Clear